953  
ASUS43 KFGF 221010  
RWRFGF  
PRAIRIE TO PINES WEATHER ROUNDUP  
NATIONAL WEATHER SERVICE EASTERN NORTH DAKOTA/GRAND FORKS ND  
500 AM CDT TUE MAY 22 2018  
 
**SATELLITE DATA USED TO AUGMENT SKY COVER AT AUTOMATED STATIONS**  
***** WEATHER ACROSS EASTERN NORTH DAKOTA *****  
 
CITY SKY/WX TMP DP RH WIND PRES REMARKS
 
GRAND FORKS FAIR 51 51 100 S6 29.95S  
GRAND FRKS AFB FAIR 51 51 100 S7 29.95S  
GRAND FRKS NWS N/A 54 52 93 S5 29.93S  
DEVILS LAKE FAIR 56 53 90 S6 29.95S  
FARGO FAIR 53 52 96 SE6 29.98R  
WAHPETON ARPT CLOUDY 55 52 88 S6 30.00R  

 
 
***** WEATHER ACROSS CENTRAL AND WESTERN NORTH DAKOTA *****  
 
CITY SKY/WX TMP DP RH WIND PRES REMARKS
 
BISMARCK FAIR 50 49 96 E6 29.93S  
MINOT FAIR 57 48 72 S7 29.89R  
JAMESTOWN FAIR 52 51 97 S5 29.95S FOG  
MINOT AFB FAIR 54 48 80 S6 29.87S  
GARRISON N/A 46 44 93 CALM 29.91S  
WILLISTON FAIR 49 44 83 CALM 29.88S  
DICKINSON FAIR 51 32 48 S9 29.89F  
HETTINGER FAIR 49 41 74 CALM 29.93S  

 
 
***** OTHER AIRPORT OBSERVATIONS IN OUR AREA *****  
 
CITY SKY/WX TMP DP RH WIND PRES REMARKS
 
WALHALLA FAIR 61 61 100 CALM 29.92S  
GRAFTON AIRPOR FAIR 48 48 100 S6 29.96S FOG  
VALLEY CITY AR CLOUDY 50 50 100 S6 29.98S FOG  
CANDO FAIR 54 54 100 S9 29.95S  
CAVALIER APRT N/A 55 55 100 S7 29.93R  
GWINNER FOG 48 48 100 CALM 29.98S VSB 0  
SHEYENNE NWR N/A 54 54 100 S6 29.95S  
ROLLA FAIR 50 50 100 SW8 29.93S  
***** THE ABOVE OBSERVATIONS ARE NON NWS ARE NOT QUALITY  
CONTROLLED AND MAY MIS-REPORT RAIN FOR SNOW...  

 
 
***** WEATHER ACROSS NORTHERN MINNESOTA *****  
 
CITY SKY/WX TMP DP RH WIND PRES REMARKS
 
FLAG ISLAND FAIR 54 45 71 S5 29.95S  
WARROAD FAIR 50 46 87 SW7 29.98R  
ROSEAU FAIR 48 45 87 S6 29.97S  
HALLOCK FAIR 52 48 87 SE9 29.95S  
THF RVR FALLS FAIR 50 48 93 S6 29.99S  
BAUDETTE FAIR 44 44 100 S3 29.99S  
WASKISH FAIR 48 45 87 CALM 30.00S  
CROOKSTON FAIR 54 52 94 S7 29.98S FOG  
STEPHEN NDAWN N/A 54 52 94 S8 N/A  
GREENBUSH NDAW N/A 52 52 100 S5 N/A  

 
***** WEATHER ACROSS CENTRAL AND WEST MINNESOTA *****  
 
CITY SKY/WX TMP DP RH WIND PRES REMARKS
 
FOSSTON FAIR 46 45 93 S5 30.01R  
BEMIDJI FAIR 44 42 95 CALM 30.01S  
PARK RAPIDS CLOUDY 55 46 71 CALM 30.00F  
ELBOW LAKE CLOUDY 56 53 89 E5 30.01R  
WADENA CLOUDY 54 46 76 SE3 30.01R  
DETROIT LAKES CLOUDY 52 48 87 CALM 30.01S  
MOORHEAD FAIR 52 50 93 CALM 30.00R FOG  
FERGUS FALLS FAIR 55 52 88 SE5 29.97R  
MORRIS MN CLOUDY 57 54 88 SE6 30.00R  
STAPLES CLOUDY 52 45 76 CALM 30.02R  

 
***** WEATHER ELSEWHERE ACROSS MINNESOTA *****  
 
CITY SKY/WX TMP DP RH WIND PRES REMARKS
 
DULUTH CLOUDY 56 42 59 VRB5 30.01R  
INTRNTL FALLS FAIR 39 38 96 CALM 30.00R  
ELY CLOUDY 43 39 87 CALM 30.02R  
CLOQUET CLOUDY 54 41 62 CALM 30.02R  
WHEATON FOG 55 55 100 E5 30.01S VSB 1/4  
BRAINERD CLOUDY 55 45 68 CALM 30.02R  
HIBBING CLOUDY 48 44 86 CALM 30.02R  
ALEXANDRIA CLOUDY 57 47 69 S3 30.02R  
SAINT CLOUD CLOUDY 47 46 97 CALM 30.01S  
MINNEAPOLIS CLOUDY 59 55 87 SE5 30.01F  

 
 
***** WEATHER ACROSS SOUTH DAKOTA *****  
 
CITY SKY/WX TMP DP RH WIND PRES REMARKS
 
SIOUX FALLS FOG 46 46 100 NE3 30.00R VSB 1  
BROOKINGS FOG 52 51 97 SE7 30.00S VSB 1/4  
WATERTOWN FOG 52 52 100 SE7 29.98S VSB 1/4  
HURON FAIR 53 52 96 MISG 29.96S FOG  
SISSETON N/A 57 57 100 SE6 29.98R  
ABERDEEN FAIR 49 49 100 CALM 29.96F FOG  
MITCHELL FAIR 54 52 93 E7 29.96S FOG  
PIERRE FAIR 54 53 97 SE7 29.91R  
MOBRIDGE FAIR 57 53 86 E8 29.90F  
RAPID CITY FAIR 50 48 93 MISG 29.91R  

 
 
***** SOME WEATHER IN NEARBY STATES *****  
 
CITY SKY/WX TMP DP RH WIND PRES REMARKS
 
GLASGOW MT FAIR 61 49 64 SW5 29.87S  
GREAT FALLS MT CLOUDY 58 50 75 SW9 29.97R  
CHEYENNE WY FAIR 48 45 89 W7 30.03S  
SCOTTSBLUFF NE FAIR 54 54 100 NE7 29.94S  
OMAHA NE MOCLDY 61 56 83 SE6 29.98S  
DES MOINES IA MOCLDY 60 59 96 CALM 29.99S  
DAVENPORT IA FAIR 57 56 96 NW3 30.02R FOG  
CHICAGO IL CLOUDY 55 53 93 N6 29.98R FOG  
EAU CLAIRE WI CLOUDY 54 54 100 E3 30.03R FOG  
LA CROSSE WI CLOUDY 58 55 90 NE5 30.01R  

 
 
***** SOME NATIONAL WEATHER *****  
 
CITY SKY/WX TMP DP RH WIND PRES REMARKS
 
LA GUARDIA NY MOCLDY 65 49 56 S6 30.14S  
RALEIGH NC MOCLDY 68 68 100 CALM 30.12S FOG  
ATLANTA GA CLOUDY 69 66 90 SE6 30.09R  
NEW ORLEANS LA FAIR 74 73 97 CALM 29.97S  
OKLAHOMA CITY FAIR 63 62 97 CALM 30.01R  
ALBUQUERQUE NM MOCLDY 59 48 67 E15 30.03R  
SALT LAKE CITY FAIR 59 47 64 SE5 29.89R  
LOS ANGELES CA CLOUDY 61 50 67 CALM 29.88S  
BOISE ID FAIR 56 51 84 CALM 29.87S  
SEATTLE WA FAIR 54 48 80 N10 29.99S  

 
 
*** WEATHER ACROSS MANITOBA...SASKATCHEWAN AND ONTARIO ***  
***ONTARIO***  
 
CITY SKY/WX TMP DP RH WIND PRES REMARKS
 
GERALDTON MOCLDY 41 30 65 SW3 29.92F  
THUNDER BAY PTCLDY 34 32 93 W6 29.98S  
SIOUX LOOKOUT PTCLDY 39 37 93 S6 29.95R  
TORONTO LGT RAIN 54 50 87 N5 30.00F  
BIG TROUT LK CLOUDY 32 28 86 NE9 29.98R WCI 24  
PICKLE LAKE NOT AVBL  
DRYDEN CLEAR 50 41 71 S9 29.95S  
KENORA PTCLDY 52 43 71 SW7 29.96R  

 
*** MANITOBA***  
 
CITY SKY/WX TMP DP RH WIND PRES REMARKS
 
BRANDON PTCLDY 48 43 81 VRB2 29.89R  
DAUPHIN CLEAR 64 48 55 SW15G21 29.82R  
ISLAND LAKE PTCLDY 45 39 81 E9 29.94R  
PILOT MOUND N/A 52 48 87 S10 N/A  
THE PAS PTCLDY 52 43 71 NE7G17 29.84R  
THOMPSON PTCLDY 28 23 80 NE9 30.03R WCI 20  
WINNIPEG PTCLDY 55 46 71 S9 29.91R  
LYNN LAKE CLEAR 34 28 80 E9 30.02R  
CHURCHILL CLOUDY 25 18 74 NE8 30.23R WCI 16  
GILLAM CLOUDY 23 19 86 E6 30.13R WCI 16  

 
***SASKATCHEWAN***  
 
CITY SKY/WX TMP DP RH WIND PRES REMARKS
 
ESTEVAN PTCLDY 57 39 51 S9 29.87R  
KINDERSLEY PTCLDY 48 41 76 W6 29.90R  
LLOYDMINSTER MOCLDY 54 43 66 NW6 29.90R  
PRINCE ALBERT MOCLDY 45 43 93 E5 29.85S  
REGINA PTCLDY 55 41 58 SW5 29.84S  
YORKTON CLOUDY 59 43 55 SE5 29.80F  
N. BATTLEFORD CLEAR 50 45 81 N7 29.88S  
LA RONGE PTCLDY 52 45 76 NE7 29.88R  
SASKATOON PTCLDY 54 46 76 N10 29.86R  
SWIFT CURRENT MOCLDY 57 45 62 W8 29.88R  

 
NOTE: THESE ARE AUTOMATED STATIONS WITH LIMITED QUALITY CONTROL  
"FAIR" INDICATES FEW OR NO CLOUDS BELOW 12,000 FEET WITH NO  
SIGNIFICANT WEATHER AND/OR S TO VISIBILITY
.  
SKY/WX - SKY CONDITION AND SIGNIFICANT WEATHER.  
TMP - AIR TEMPERATURE. DP - DEWPOINT TEMPERATURE.  
RH - RELATIVE HUMIDITY. PRES - PRESSURE.  
HX - HEAT INDEX. WCI - WIND CHILL INDEX.  
$  
 
 
CLICK HERE TO GO TO PREVIOUS BULLETINS.

The Nexlab ND Page
The Nexlab MN Page Main Text Page